This demonstration page uses our WeatherBlox Daily Observations layout. Learn more.

Left ArrowRight Arrow

Hourly Observations for December 31, 2019

Temp ( °F °C ) Dew Point ( °F °C ) Humidity (%) Winds ( mph kmh ) Pressure ( in mb ) Visibility ( mi km ) Precip ( " mm )
12:53 am 00:53 Clear 55 12.8 34 1.1 45 45 N 12 19 30.17 1022 10 16 0.00 0.00
1:53 am 01:53 Clear 53 11.7 34 1.1 48 48 NNW 8 13 30.19 1022 10 16 0.00 0.00
2:53 am 02:53 Clear 54 12.2 34 1.1 47 47 NNW 9 15 30.18 1022 10 16 0.00 0.00
3:53 am 03:53 Clear 55 12.8 34 1.1 45 45 NNW 7 11 30.17 1022 10 16 0.00 0.00
4:53 am 04:53 Clear 55 12.8 34 1.1 45 45 NNW 8 13 30.17 1022 10 16 0.00 0.00
5:53 am 05:53 Clear 55 12.8 34 1.1 45 45 NNE 5 7 30.17 1022 10 16 0.00 0.00
6:53 am 06:53 Clear 54 12.2 35 1.7 49 49 NNE 3 6 30.17 1022 10 16 0.00 0.00
7:53 am 07:53 Sunny 51 10.6 36 2.2 56 56 NW 6 9 30.17 1022 10 16 0.00 0.00
8:53 am 08:53 Sunny 54 12.2 36 2.2 51 51 Calm 30.19 1022 10 16 0.00 0.00
9:53 am 09:53 Sunny 56 13.3 37 2.8 49 49 NNW 6 9 30.18 1022 10 16 0.00 0.00
10:53 am 10:53 Sunny 62 16.7 37 2.8 40 40 N 13 20 30.17 1022 10 16 0.00 0.00
11:53 am 11:53 Sunny 65 18.3 35 1.7 33 33 N 8 13 30.14 1021 10 16 0.00 0.00
12:53 pm 12:53 Sunny 65 18.3 34 1.1 32 32 NNW 8 13 30.11 1020 10 16 0.00 0.00
1:53 pm 13:53 Sunny 67 19.4 34 1.1 30 30 NNW 8 13 30.08 1019 10 16 0.00 0.00
2:53 pm 14:53 Sunny 68 20 38 3.3 33 33 NNW 6 9 30.08 1019 10 16 0.00 0.00
3:53 pm 15:53 Sunny 66 18.9 38 3.3 36 36 WNW 3 6 30.07 1018 10 16 0.00 0.00
4:53 pm 16:53 Clear 63 17.2 39 3.9 41 41 Calm 30.07 1018 10 16 0.00 0.00
5:53 pm 17:53 Clear 58 14.4 41 5 53 53 N 3 6 30.05 1018 10 16 0.00 0.00
6:53 pm 18:53 Clear 58 14.4 39 3.9 50 50 NW 3 6 30.08 1019 10 16 0.00 0.00
7:53 pm 19:53 Mostly Cloudy 52 11.1 43 6.1 72 72 SSE 8 13 30.11 1020 10 16 0.00 0.00
8:53 pm 20:53 Mostly Clear 51 10.6 44 6.7 77 77 S 5 7 30.13 1020 10 16 0.00 0.00
9:53 pm 21:53 Clear 51 10.6 42 5.6 71 71 VRB 6 9 30.11 1020 10 16 0.00 0.00
10:53 pm 22:53 Partly Cloudy 50 10 44 6.7 80 80 SSE 6 9 30.14 1021 9 14 0.00 0.00
11:53 pm 23:53 Mostly Cloudy 50 10 43 6.1 77 77 ESE 5 7 30.13 1020 8 13 0.00 0.00

Powered by AerisWeather